WET,Max TemperatureF,Mean TemperatureF,Min TemperatureF,Max Dew PointF,MeanDew PointF,Min DewpointF,Max Humidity, Mean Humidity, Min Humidity, Max Sea Level PressureIn, Mean Sea Level PressureIn, Min Sea Level PressureIn, Max VisibilityMiles, Mean VisibilityMiles, Min VisibilityMiles, Max Wind SpeedMPH, Mean Wind SpeedMPH, Max Gust SpeedMPH,PrecipitationIn, CloudCover, Events, WindDirDegrees
2012-11-1,78,70,63,68,66,64,100,87,58,30.06,29.95,29.78,6,6,4,14,4,,0.00,4,,259
2012-11-2,81,72,64,68,65,63,100,81,44,30.12,30.06,29.96,6,6,5,8,3,,0.00,4,,154
2012-11-3,86,75,64,67,63,59,88,65,30,30.09,30.06,29.94,6,6,3,12,4,,0.00,5,,218
2012-11-4,85,75,65,66,62,59,88,63,32,30.15,30.06,29.96,6,6,5,9,4,,0.00,5,,225
2012-11-5,85,75,65,66,63,59,100,66,34,30.12,30.04,29.90,6,6,6,15,6,,0.00,5,,354
2012-11-6,77,70,64,66,64,61,100,79,51,30.09,30.00,29.88,6,6,5,18,6,,0.00,3,Rain,184
2012-11-7,77,70,63,66,65,63,100,87,61,30.01,29.95,29.84,6,4,2,13,6,,0.00,4,,230
2012-11-8,73,66,59,66,63,59,100,97,81,30.06,30.01,29.92,6,4,2,12,6,,0.12,4,Rain,278
2012-11-9,66,62,57,61,56,50,100,84,52,30.06,30.03,29.97,6,6,4,8,5,,0.04,6,Rain,251
2012-11-10,67,60,53,57,54,50,95,79,47,30.15,30.07,30.01,6,6,6,13,4,,0.00,5,,259
2012-11-11,65,58,50,57,53,50,100,87,62,30.10,30.07,30.00,6,6,3,14,5,,0.02,5,Rain,272
2012-11-12,61,54,48,52,47,41,100,77,43,30.12,30.08,30.04,6,6,4,13,5,,0.00,3,Rain,83
2012-11-13,69,56,44,52,47,43,100,72,33,30.14,30.04,29.93,6,6,4,12,6,,0.00,,,78
2012-11-14,73,60,46,52,48,45,100,70,26,30.01,29.94,29.84,6,6,5,10,3,,0.00,,,215
2012-11-15,69,58,47,55,53,49,100,77,45,30.04,29.99,29.93,6,6,4,7,3,,0.00,2,,141
2012-11-16,70,60,49,55,53,51,100,68,43,30.01,29.96,29.89,6,5,4,7,3,,0.00,5,,35
2012-11-17,68,60,53,59,55,52,100,86,60,29.98,29.92,29.86,6,6,5,21,5,,0.01,3,Rain,256
2012-11-18,65,59,53,57,55,52,100,89,58,30.09,30.02,29.95,6,6,2,13,8,20,0.39,5,Rain,252
2012-11-19,66,57,48,54,52,48,100,83,51,30.12,30.06,30.01,6,6,4,8,5,,0.00,2,,74
2012-11-20,68,57,46,55,52,46,100,82,43,30.12,30.08,30.02,6,6,4,9,3,,0.00,3,,284
2012-11-21,72,58,45,55,51,46,100,72,31,30.12,30.07,29.95,6,6,4,13,5,,0.00,4,,75
2012-11-22,74,62,49,57,53,50,100,74,34,30.15,30.09,30.01,6,6,2,7,2,,0.00,3,,130
2012-11-23,79,64,48,55,50,43,100,66,18,30.12,30.08,29.98,6,6,4,6,3,,0.00,,,110
2012-11-24,76,62,48,55,49,43,94,63,23,30.12,30.09,30.00,6,5,2,6,3,,0.00,5,,65
2012-11-25,75,62,49,54,51,46,88,58,26,30.09,29.98,29.89,6,6,3,7,3,,0.00,4,,72
2012-11-26,75,62,49,55,51,46,88,64,31,30.01,29.95,29.87,6,6,3,12,4,,0.00,5,,230
2012-11-27,67,60,53,55,52,45,94,83,64,30.06,30.01,29.95,6,6,4,9,3,,0.01,7,Rain,46
2012-11-28,64,54,44,48,45,42,100,70,36,30.07,30.04,29.97,6,6,6,12,5,,0.00,4,,60
2012-11-29,62,53,44,48,42,26,88,63,17,30.12,30.07,30.02,6,6,6,9,6,,0.00,2,,52
2012-11-30,63,54,44,50,45,37,100,78,31,30.11,30.00,29.92,6,6,4,20,7,31,0.12,3,Rain,228